Tracking 17155 objects as of 29-July-2015
HD Live streaming from Space Station

DELTA 1 DEB

Track DELTA 1 DEB now!
10-day predictions
DELTA 1 DEB is classified as:


NORAD ID: 15205
Int'l Code: 1984-088E
Perigee: 554.5 km
Apogee: 3,861.8 km
Inclination: 28.7 °
Period: 131.8 minutes
Semi major axis: 8579 km
RCS: 0.0578 m2 (small)
Launch date: August 16, 1984
Source: United States (US)

Note: This is SATELLITE DEBRIS
Your satellite tracking list
Your tracking list is empty





NASA's NSSDC Master Catalog

Two Line Element Set (TLE):
1 15205U 84088E   15209.73974675  .00000536  00000-0  30953-3 0  9993
2 15205 028.7230 064.7670 1927530 137.2551 309.5494 10.92532145802408

Source of the keplerian elements: AFSPC

N2YO: 282